Overview Statistics Trail Chart Weather Telemetry Raw packets
 

This is the latest recevied weather packets stored in our database for station/object N1NCB-3. If no packets are shown the sender has not sent any weather packets the latest 10 day(s).

<< 103 104 105 106 107 108 109 >>
Time Temp. Humidity Pressure Rain* Wind** Luminosity Snow
1787853804 26.11° C 68% 1014.2 hPa 0 mm - - -
1787853504 26.67° C 68% 1014.2 hPa 0 mm - - -
1787853204 26.67° C 68% 1013.8 hPa 0 mm - - -
1787852904 26.11° C 68% 1013.8 hPa 0 mm - - -
1787852604 26.11° C 68% 1013.8 hPa 0 mm - - -
1787852304 26.11° C 69% 1013.8 hPa 0 mm - - -
1787852004 26.11° C 69% 1014.2 hPa 0 mm - - -
1787851704 26.11° C 69% 1014.2 hPa 0 mm - - -
1787851404 26.11° C 69% 1014.2 hPa 0 mm - - -
1787851104 26.11° C 70% 1014.2 hPa 0 mm - - -
1787850804 25.56° C 69% 1014.2 hPa 0 mm - - -
1787850504 25.56° C 70% 1014.2 hPa 0 mm - - -
1787850204 25° C 73% 1014.2 hPa 0 mm - - -
1787849904 25° C 73% 1014.2 hPa 0 mm - - -
1787849604 24.44° C 74% 1014.2 hPa 0 mm - - -
1787849304 24.44° C 75% 1014.2 hPa 0 mm - - -
1787849004 23.89° C 76% 1014.5 hPa 0 mm - - -
1787848704 23.33° C 76% 1014.2 hPa 0 mm - - -
1787848404 23.33° C 76% 1014.5 hPa 0 mm - - -
1787848104 23.33° C 76% 1014.9 hPa 0 mm - - -
1787847804 23.33° C 77% 1014.9 hPa 0 mm - - -
1787847504 23.33° C 78% 1014.9 hPa 0 mm - - -
1787847204 22.78° C 78% 1014.9 hPa 0 mm - - -
1787846904 22.78° C 79% 1014.9 hPa 0 mm - - -
1787846604 22.78° C 80% 1014.9 hPa 0 mm - - -

* Rain latest hour (hover to see other rain measurements)
** Current wind speed in m/s (hover to see current wind gust speed)